Location: Zilina
(0.0000°N, 18.7333°E)
Time: 10:42:03
(UTC+02:00)

GPS 2-15 Rocket1 - Pass Details

Date: 19 February 2019
Orbit: 624 x 675 km, 19.8° (Epoch: 22 October)

Event Time Altitude Azimuth Distance (km) Brightness Sun altitude
Rises 18:47:50 0° 280° (W) 2,966 8.0 -12.0°
Reaches altitude 10° 18:50:19 10° 274° (W) 2,047 7.0 -12.6°
Maximum altitude 18:54:56 46° 201° (SSW) 861 4.0 -13.7°
Enters shadow 18:59:18 11° 128° (SE) 1,951 5.2 -14.8°
